OneWeb SL0548

operational
NORAD ID: 56050 Int'l Des: 2023-043 Owner: ONEWEBN Country: UK Constellation: oneweb
LEOCIRCULARPOLARONEWEB_TYPE

OneWeb SL0548について

説明を読み込み中...

リアルタイム位置

3D地球を読み込み中...

次回通過

高度履歴

Altitude vs Time

uPlot chart will show altitude changes over time

軌道要素

1 56050U 23043E 26034.14149623 .00000116 00000-0 27050-3 0 9998
2 56050 87.9011 255.4559 0001533 67.5842 292.5451 13.16595191141323
Epoch: Feb 3, 2026 • Age: 8 hours

現在のステータス

高度 1216.7 km
速度 7.24 km/s
衛星直下点 -46.14°S, 126.35°E
打ち上げ日 Mar 26, 2023
運用期間 2.8 years
タイプ internet

技術仕様

分類 Payload
質量 148.00 kg
乾燥質量 140.00 kg
総質量 148.00 kg
長さ 1.30 m
直径 1.00 m
スパン 5.00 m
形状 Trapezoid+2 pan
製造者 ONEWUS
バスタイプ ARROW
フェーズステータス In Orbit
所有者/国 ONEWEBN/UK

大規模コンステレーション

Loading constellations...